Simultaneous Nadir Overpasses (SNOs) Predictions

Prediction of SNOs between GOES-16 and NOAA-20 Satellite Orbit:

Table of predicted SNOs for the next 14.0 days since TLE Epoch: 6/3/2023
Index Date Time (GOES-16) GOES-16 Lat,Lon NOAA-20 Lat,Lon Distance(km) Time Diff (sec)
1 06/03/2023 06:30:32 -0.03, -75.20 0.24, -76.43 139.98 80
2 06/04/2023 06:14:27 -0.02, -75.20 -0.74, -71.89 377.00 80
3 06/05/2023 18:33:43 0.03, -75.20 -0.43, -77.19 226.83 80
4 06/06/2023 18:17:39 0.02, -75.20 0.62, -72.66 290.40 80
5 06/08/2023 06:36:45 -0.03, -75.21 0.60, -77.91 308.42 80
6 06/09/2023 06:20:41 -0.02, -75.22 -0.44, -73.39 209.24 80
7 06/10/2023 18:39:57 0.03, -75.23 -0.72, -78.69 393.41 80
8 06/11/2023 18:23:51 0.02, -75.24 0.27, -74.15 124.87 80
9 06/13/2023 06:42:59 -0.03, -75.27 0.88, -79.41 472.28 80
10 06/14/2023 06:26:53 -0.03, -75.28 -0.11, -74.87 46.26 80
11 06/16/2023 18:27:24 0.04, -75.32 -0.05, -75.64 36.71 80
